THORAD AGENA D DEB, 4919

Orbit data source: Space-Track

THORAD AGENA D DEB, 4919 is space debris in SSO originally from a launch on Wed, 08 Apr 1970 UTC launched from the Air Force Western Test Range (AFWTR). Debris objects in space refer to the collection of defunct objects orbiting the Earth. Examples of debris include non-operational satellites, rocket bodies, and fragments generated from explosions, collisions, or faulty payload assembly.

Loading next visibility...
Identifier
4919, 1970-025FR
Orbit
SSO
Country
Flag of USUS
Related business
Manufacturer
Unknown
Mission
Spacecraft
Bus & Motor
Unknown
Mass
Unknown
Launch date (UTC)
1970-04-08 (56 years ago)
Launch vehicle
Unknown
Launch site
Air Force Western Test Range (AFWTR)
Object type
Payload
Rocket body
Debris
Shape & HBR
Unknown shape, 0.1 m
Radar Cross Section
Small (<0.1 m²)

Expand to show TLE details & history
Last TLE update: 11 hours ago

TLE from 11 hours ago
0 THORAD AGENA D DEB
1 04919U 70025FR  25353.12828097  .00002061  00000-0  10038-2 0  9995
2 04919 100.0661  64.9282 0041487 231.2080 128.5383 14.19087034824898
Epoch: 2025-12-19T03:04Z
TLE epoch observation values (Epoch: 2025-12-19T03:04:43.475Z)
Latitude
-0.00004°
Longitude
-69.22682°
Altitude
850.015 km
Speed
7.418 km/s
True Right ascension
04h 19m 42s
True Declination
0° 00' 00"
Sunlit
Object was in full shadow at epoch
Visualization orbit readout
Latitude
Unknown
Longitude
Unknown
Altitude
Unknown
Speed
Unknown
Apparent Right ascension
Unknown
Apparent Declination
Unknown
Sunlit
N/A
Visualization observer readout
Local Sidereal Time
13:07:57
Azimuth
Unknown
Elevation
Unknown
Doppler factor
Unknown
Orbital elements
Apogee altitude
855.558 km
Perigee altitude
795.785 km
Semi-major axis
7,203.809 km
Eccentricity
0.00415
Inclination
100.0661°
RAAN
64.9282°
Arg. of periapsis
231.208°
True anomaly
128.90896°
Mean anomaly
128.5383°
Eccentric anomaly
128.72375°
Mean motion
3.54977 °/min
Orbital period
101.42 mins
BSTAR
0.0010038
Loading maneuver chart data...
Computing Atmospheric mass density...

Documentation

Showing up to 5 results
|